Simultaneous Nadir Overpasses (SNOs) Predictions

Prediction of SNOs between GOES-14 and NOAA-20 Satellite Orbit:

Table of predicted SNOs for the next 14.0 days since TLE Epoch: 8/16/2019
Index Date Time (GOES-14) GOES-14 Lat,Lon NOAA-20 Lat,Lon Distance(km) Time Diff (sec)
1 08/17/2019 20:38:56 -0.38,-104.59 -1.28,-108.70 467.49 80
2 08/18/2019 20:22:50 -0.37,-104.59 -0.28,-104.16 48.14 80
3 08/21/2019 08:25:51 0.38,-104.38 0.47,-104.89 57.40 80
4 08/22/2019 08:04:26 0.37,-104.36 -0.54,-100.35 456.83 80
5 08/23/2019 20:26:21 -0.38,-104.51 -0.66,-105.65 131.22 80
6 08/24/2019 20:10:17 -0.37,-104.50 0.40,-101.13 384.18 80
7 08/26/2019 08:32:02 0.37,-104.32 0.85,-106.38 235.51 80
8 08/27/2019 08:10:36 0.37,-104.29 -0.16,-101.85 278.21 80
9 08/28/2019 20:32:33 -0.37,-104.41 -0.97,-107.16 312.98 80
10 08/29/2019 20:16:27 -0.36,-104.40 0.03,-102.62 202.34 80




NCC Satellite Simultaneous Nadir Overpasses (SNOs) Prediction Service
